Regional Weather Roundup
Issued by NWS Green Bay, WI

Home | Current Version | Previous Version | Graphics & Text | Print | Product List | Glossary Off
Versions: 1 2 3 4 5 6 7 8 9 10 11 12 13 14 15 16 17 18 19 20 21 22 23 24 25 26 27 28 29 30 31 32 33 34 35 36 37 38 39 40 41 42 43 44 45 46 47 48 49 50

000
ASUS43 KGRB 291510
RWRGRB

NORTH-CENTRAL AND NORTHEAST WISCONSIN REGIONAL WEATHER ROUNDUP
NATIONAL WEATHER SERVICE GREEN BAY WI
1000 AM CDT FRI AUG 29 2014

WIZ005-009-010>012-018-019-291600-
NORTH CENTRAL WISCONSIN

CITY           SKY/WX    TMP DP  RH WIND       PRES   REMARKS
IRONWOOD       NOT AVBL
MANITOWISH WTR CLOUDY    60  60 100 S8        29.91R
ARBOR VITAE    CLOUDY    62  60  94 S7        29.92R
EAGLE RIVER    CLOUDY    60  60 100 S6        29.91R
LAND O LAKES   CLOUDY    60  59  97 S6        29.93R
RHINELANDER    CLOUDY    60  59  96 S7        29.93R
PHILLIPS       CLOUDY    60  60  99 S5        29.90R
ANTIGO         FOG       59  59 100 SE7       29.93S VSB 1/4
TOMAHAWK       RAIN      59  58  96 SE3       29.92R
MERRILL        CLOUDY    61  61 100 SE7       29.91R FOG
$$

WIZ013-073-291600-
NORTHEAST WISCONSIN

CITY           SKY/WX    TMP DP  RH WIND       PRES   REMARKS
IRON MOUNTAIN  CLOUDY    60  59  96 SE10      29.93F FOG
MARINETTE      CLOUDY    64  63  94 S6        29.93F
OCONTO         CLOUDY    66  66 100 S3        29.92F
$$

WIZ017-030-035>037-045-291600-
CENTRAL WISCONSIN

CITY           SKY/WX    TMP DP  RH WIND       PRES   REMARKS
MEDFORD        FOG       62  62 100 SE6       29.90S VSB 1/4
WAUSAU         CLOUDY    62  61  96 SE7       29.90R FOG
MOSINEE        FOG       63  63 100 S6        29.92R VSB 1/2
MARSHFIELD     CLOUDY    65  64  97 S7        29.90R FOG
WISC RAPIDS    CLOUDY    67  64  90 S7        29.92R
STEVENS POINT  CLOUDY    64  62  94 S5        29.92R FOG
WAUPACA        CLOUDY    69  67  94 SE6       29.92F FOG
SHAWANO        CLOUDY    67  65  91 SE5       29.92F
CLINTONVILLE   CLOUDY    68  64  88 S8        29.91F
$$

WIZ038-039-048-051-291600-
FOX VALLEY

CITY           SKY/WX    TMP DP  RH WIND       PRES   REMARKS
NWS GREEN BAY  CLOUDY    70  68  93 S8        29.94F
APPLETON       PTSUNNY   70  66  88 S7        29.94F FOG
OSHKOSH        CLOUDY    73  68  84 S12       29.93S
FOND DU LAC    MOSUNNY   74  67  78 S12       29.93F
$$

WIZ022-050-052-291600-
EAST CENTRAL WISCONSIN

CITY           SKY/WX    TMP DP  RH WIND       PRES   REMARKS
STURGEON BAY   CLOUDY    66  63  88 S14G21    29.95F
MANITOWOC      CLOUDY    71  68  90 S17       29.95F
SHEBOYGAN      PTSUNNY   73  68  84 S9        29.95F
$$

LMZ563-521-522-541>543-291600-
LAKESHORE

STATION/POSITION TIME  TEMP    WIND        PRES    VSBY  WAVE
                       AIR SEA DIR/SP/G                  HT/PER
                 (UTC) (F)     (DEG/KT/KT) (MB)    (MI)  (FT/S)
SHEBOYGAN LKSHOR 1500   68 69  170/ 13/ 15 1014.4F
KEWAUNEE LKSHORE 1500   66     170/ 11/ 13 1013.9R
TWO RIVERS CG    1500                      1014.1      6   4
NORTHPORT PIER   1500   63     140/ 15/ 18 1014.6F
N MID LAKE BUOY  1500   63 65  150/ 16/ 19 1015.1F
S GREEN BAY BUOY 1400   68     VRB 16/ 17  1014.5F
SISTER BAY LKSHO 1400   62     140/ 11/ 15   N/A
CHAMBERS ISLAND  1500   64     120/  7/ 11 1014.2S
MENOMINEE LKSHOR 1500   66     160/ 11/ 16 1014.3R
$$


USA.gov is the U.S. government's official web portal to all federal, state and local government web resources and services.